Theta_e
296 296 295 296 296 296 296 296 297 297 298 299 300 302 307 311 313 313 313 312 311 313 317 316 313 314 314 312 310 310 310 310 310 309 309 309 309 309 309 309 309 309 309 309 310 310 310 316 323 325 324 322 321 319 317 317 320 323 322 321 319 321 321 322 326 328 326 320 320 320 317 318 320 319 318 318 319 324 328 332 335 332 329 327 330 332 327
296 295 295 296 296 296 296 296 297 297 298 299 301 304 306 308 310 312 313 312 311 313 314 314 315 314 313 311 311 310 310 310 309 309 309 310 310 309 309 308 309 309 309 309 310 311 311 314 319 322 322 320 318 317 316 316 321 323 322 321 321 320 322 325 326 325 323 320 321 323 321 320 320 320 321 320 321 324 324 326 330 330 329 331 333 330 325
295 295 296 296 296 296 297 297 297 298 297 299 303 306 307 310 312 312 313 313 312 312 311 311 313 314 313 313 313 311 310 310 309 309 310 309 309 309 309 309 309 310 310 311 312 313 312 312 316 320 321 320 317 316 316 317 319 320 318 319 320 319 322 326 325 323 323 324 325 326 326 322 321 322 323 322 323 324 323 323 326 328 325 326 330 329 325
295 295 296 296 296 297 297 298 299 299 299 302 305 307 309 312 313 312 312 311 310 311 310 310 313 313 313 314 313 311 311 310 308 309 310 309 309 309 309 310 311 312 313 314 314 314 314 314 315 317 318 320 317 316 317 318 320 320 317 316 319 322 325 325 325 325 325 325 322 321 323 322 321 322 322 322 322 323 327 328 325 326 325 323 325 326 325
295 296 296 296 296 297 298 299 300 300 302 305 307 308 310 312 312 311 309 309 311 311 309 309 311 311 311 313 311 310 310 309 308 309 310 309 308 309 309 309 311 312 314 316 314 314 315 314 314 315 316 318 316 315 316 318 318 318 316 316 320 323 324 322 321 322 321 319 317 316 318 320 320 321 321 322 322 324 333 334 323 322 326 324 323 325 326
295 295 296 296 297 298 299 300 301 303 307 308 307 308 309 310 310 308 307 311 313 312 310 309 310 310 311 312 311 310 310 309 309 308 309 309 308 310 310 308 309 310 312 314 313 313 317 317 314 315 315 315 318 318 318 317 316 317 317 317 319 321 320 318 318 321 320 318 317 317 317 317 317 318 318 319 321 323 330 330 322 324 330 327 323 323 325
295 295 296 296 297 299 300 301 303 305 307 307 306 308 308 308 309 308 308 311 311 310 309 308 309 310 312 313 311 309 310 310 309 307 310 313 309 308 310 307 307 309 310 312 311 311 315 314 313 315 313 313 318 321 320 319 316 317 319 319 319 321 320 316 317 320 319 317 318 317 317 317 317 316 316 318 322 323 324 324 322 324 328 325 322 323 324
296 295 296 297 297 299 301 302 303 304 306 305 306 307 307 308 309 308 310 311 309 309 309 308 310 311 311 313 310 308 309 310 309 308 310 313 310 308 309 308 307 308 308 310 310 308 308 309 310 313 311 312 317 317 318 322 319 319 322 321 320 320 318 316 318 321 319 318 319 317 316 320 319 315 314 317 322 326 325 324 324 322 322 321 321 323 323
296 295 296 297 298 300 302 302 302 303 304 304 305 307 307 308 309 308 311 312 309 308 307 309 314 314 311 313 310 308 310 308 308 310 309 309 309 308 308 309 308 309 310 310 309 306 306 306 307 308 308 310 314 313 315 320 320 320 320 321 322 322 318 316 320 322 320 318 319 317 317 320 321 316 313 314 319 324 323 322 322 322 321 321 321 323 322
295 295 296 297 299 301 302 303 303 302 303 303 304 307 307 308 309 307 309 310 306 305 306 307 310 309 308 311 310 308 309 306 307 312 309 306 308 307 307 308 308 310 311 311 309 305 304 305 305 306 306 307 308 309 310 313 317 321 321 321 322 323 321 318 319 321 319 316 318 318 317 320 321 316 311 311 316 320 321 320 320 319 320 321 322 322 321
295 295 296 297 299 302 302 303 303 302 303 303 305 307 308 308 309 305 307 310 304 303 306 307 307 306 305 307 308 308 309 307 307 309 309 307 307 306 306 306 307 310 310 308 306 305 304 305 305 305 306 306 306 308 309 310 314 319 322 324 321 319 320 319 319 320 320 317 318 319 319 320 319 314 310 309 313 318 320 320 319 318 319 319 319 320 319
295 296 297 297 299 301 303 303 303 303 303 304 305 307 307 308 308 305 306 309 305 303 307 306 304 305 305 304 305 307 309 309 307 307 308 308 306 305 306 305 306 309 308 305 305 305 305 307 309 309 308 306 307 309 310 311 313 314 317 321 320 318 318 319 319 320 319 318 319 320 319 318 316 313 310 308 309 314 316 317 316 316 316 316 316 317 315
296 296 297 297 298 301 302 302 303 303 303 304 304 305 306 306 307 305 304 306 304 303 305 305 302 304 305 304 304 305 305 305 306 306 307 307 306 305 305 305 305 306 306 306 305 305 307 312 315 315 313 309 310 311 311 311 311 311 312 315 318 318 319 319 318 318 317 318 320 320 317 314 314 314 311 309 309 311 314 316 315 313 312 312 312 312 311
296 296 297 297 298 300 302 302 303 303 303 303 303 304 305 305 305 305 304 305 303 301 302 304 304 305 305 303 303 304 303 304 305 306 306 307 307 306 305 304 305 305 306 307 306 306 311 316 319 319 317 315 315 314 312 311 311 311 311 312 315 318 320 320 318 316 317 318 317 315 314 314 314 313 310 309 309 309 311 314 313 311 310 309 309 309 308
296 296 297 297 298 299 301 302 303 303 303 303 303 304 305 303 303 304 303 304 304 302 301 303 304 304 304 303 303 304 305 305 305 306 306 305 305 306 305 304 305 305 306 307 307 309 312 314 316 319 318 317 315 313 312 312 311 311 310 310 311 315 318 321 319 315 316 318 315 314 316 315 313 312 310 308 307 307 309 313 313 312 310 308 308 308 307
296 296 297 297 298 299 300 301 302 302 302 302 303 304 304 303 302 302 301 302 305 304 301 300 302 302 302 302 302 303 305 306 306 309 310 307 304 304 304 305 305 306 306 307 307 309 312 311 314 317 316 314 313 313 313 314 314 313 311 309 310 311 314 319 320 317 317 319 317 315 316 314 312 311 309 308 307 306 308 313 315 312 309 307 307 307 306
296 296 297 297 298 299 300 301 301 302 302 302 303 303 304 303 302 301 300 300 301 302 300 300 301 301 301 302 302 302 303 303 304 307 309 306 303 303 303 304 305 305 306 309 310 311 313 314 315 317 314 310 312 313 313 315 316 314 313 313 313 313 313 316 318 317 316 317 315 313 313 312 310 308 307 306 306 307 312 317 315 311 309 308 307 307 307
296 296 296 297 298 299 301 301 301 301 301 302 303 303 303 302 301 300 300 300 300 300 299 300 300 299 300 301 302 301 302 302 302 305 306 304 302 302 302 303 305 305 305 310 313 312 311 311 312 316 315 310 311 315 314 313 314 313 313 314 314 314 314 314 314 315 314 314 313 311 311 310 307 306 306 306 306 310 316 316 313 310 309 308 307 307 307
297 296 296 297 297 298 300 301 301 301 301 301 302 303 302 302 301 300 300 300 300 300 300 299 299 299 300 300 300 301 300 300 302 305 306 305 302 301 302 303 305 304 303 308 312 309 308 308 308 313 316 311 311 314 312 309 310 310 311 313 313 313 314 313 313 313 313 312 312 310 310 308 305 305 305 306 310 315 313 309 308 309 308 307 307 307 306
297 297 297 296 297 299 301 302 302 302 301 301 301 302 302 302 302 301 300 300 300 300 299 300 300 299 300 300 300 301 300 300 301 302 303 304 301 303 307 307 305 304 303 307 311 308 306 308 307 309 311 308 309 312 309 306 306 307 308 311 310 310 313 313 311 311 311 311 310 311 310 307 304 306 308 307 309 311 307 304 305 306 306 306 306 305 304
298 297 297 297 297 298 300 302 304 303 302 302 302 302 302 303 302 301 301 301 301 300 299 300 300 300 300 300 300 300 300 300 300 300 301 302 301 304 308 305 303 303 303 305 308 307 304 306 307 307 306 306 307 309 310 309 308 306 308 311 310 309 312 313 310 309 310 310 308 308 307 304 303 306 307 305 304 306 304 303 304 304 304 304 304 303 303
298 298 298 297 297 297 298 300 304 304 303 303 302 302 303 303 303 303 302 301 301 301 300 300 300 300 300 300 301 301 301 301 300 300 301 301 300 302 303 301 301 303 302 304 306 306 305 305 306 307 306 306 306 307 308 311 309 306 308 311 310 308 308 309 308 307 307 307 306 304 304 303 303 303 303 302 303 303 304 304 303 303 303 303 303 303 302
297 298 298 298 298 297 297 298 301 302 301 301 301 301 302 304 304 304 303 302 301 302 301 300 300 300 300 300 301 301 301 301 300 300 301 301 301 301 301 301 302 302 302 302 303 303 304 304 305 307 306 304 305 307 307 308 307 306 307 307 306 305 305 306 306 305 304 305 304 303 303 303 303 303 303 303 303 303 304 304 303 302 303 302 302 302 302
297 297 298 297 298 298 297 297 298 298 298 300 301 301 302 303 304 304 303 303 302 301 301 301 300 301 300 300 301 301 301 301 301 301 301 301 302 302 301 301 302 302 302 302 301 302 303 302 303 306 304 303 305 308 307 306 305 306 307 306 304 305 306 306 307 307 306 305 303 302 303 303 302 303 303 303 303 303 303 304 303 302 303 302 302 302 301
297 298 297 297 297 298 298 297 297 297 298 300 301 301 300 302 303 302 303 303 303 302 302 301 300 301 301 300 301 301 301 301 301 301 301 301 301 302 301 301 301 301 301 301 301 301 302 301 303 305 304 302 303 305 306 306 305 306 308 306 305 306 306 307 308 308 307 306 303 302 302 302 302 303 302 302 302 303 303 303 303 303 304 303 303 303 303
297 297 298 298 297 297 297 298 297 297 297 299 300 300 299 300 300 302 303 305 304 303 303 302 301 300 301 301 301 301 300 301 301 301 301 301 301 301 301 300 301 301 300 301 301 301 301 302 304 306 305 302 302 303 303 304 304 306 306 303 302 305 306 306 306 306 305 304 303 302 302 302 301 302 302 302 302 302 302 302 303 303 303 303 303 303 303
297 298 298 298 298 298 297 297 297 297 297 299 300 300 301 300 299 300 303 305 304 304 305 304 301 300 301 301 301 301 301 301 301 301 301 301 301 301 301 300 301 300 300 301 300 300 301 302 303 304 302 301 302 302 301 301 304 307 305 302 302 305 306 305 305 306 306 306 304 303 304 303 302 301 302 302 302 302 302 302 301 301 301 301 301 301 301
297 297 298 298 298 298 297 297 297 296 297 299 300 301 303 302 299 298 301 303 304 305 305 304 302 301 302 301 301 301 301 301 301 302 301 301 301 300 300 300 300 300 300 301 300 300 301 302 301 301 300 300 302 302 301 302 304 305 303 301 303 304 304 305 307 307 307 306 304 303 303 303 301 301 302 302 301 301 301 301 301 301 300 300 300 300 300
297 297 297 297 298 298 297 297 297 296 297 300 300 301 303 302 300 299 299 301 303 303 303 303 303 302 302 301 301 301 301 302 301 301 301 301 301 300 300 300 300 299 300 300 300 300 301 301 300 299 299 300 302 304 304 305 305 303 300 300 302 303 303 305 306 305 304 304 303 303 303 302 302 302 302 301 302 301 301 301 301 300 300 300 299 299 300
297 297 297 297 297 297 296 296 296 297 299 302 302 303 304 303 301 300 299 298 301 303 303 304 304 302 301 301 301 301 301 302 302 301 301 301 301 300 300 300 300 300 300 299 299 299 299 299 299 299 299 298 300 303 304 304 303 301 299 300 302 303 304 304 303 303 304 304 303 303 302 301 301 301 301 302 302 301 300 300 300 299 299 299 299 299 299
296 297 297 297 296 296 296 296 297 299 302 303 304 305 304 302 302 301 298 297 300 303 303 303 304 302 301 301 301 301 301 302 302 301 301 300 300 301 300 300 300 300 300 299 299 299 299 299 299 299 299 299 300 302 304 305 303 300 299 300 301 302 302 303 303 303 303 303 303 302 301 300 300 300 300 301 301 300 299 299 299 299 299 298 298 298 298
296 296 296 296 296 296 296 296 297 299 300 300 302 302 301 300 300 300 297 297 300 302 303 303 303 302 301 301 301 301 301 302 301 301 301 300 300 301 300 300 300 300 300 300 299 299 300 300 299 300 300 299 300 304 306 305 302 300 299 299 300 300 300 301 302 302 302 303 302 301 300 299 300 300 299 299 299 299 299 299 299 298 298 298 297 297 297
296 296 296 296 295 295 297 298 300 300 300 299 300 300 299 298 298 298 297 297 300 302 302 303 303 302 301 301 301 301 301 301 301 301 300 301 301 300 300 300 300 300 300 299 299 299 300 299 299 300 300 298 300 305 306 302 300 299 300 299 299 299 299 299 300 300 301 301 301 300 299 299 300 299 299 299 299 299 298 298 298 298 298 298 297 297 297
296 296 295 295 295 298 300 302 303 302 301 301 301 299 297 297 297 297 297 298 300 301 301 301 302 302 302 302 302 301 301 301 301 301 300 300 300 300 300 300 300 300 300 300 299 300 300 299 299 301 300 299 300 303 302 299 298 299 299 299 299 299 299 299 299 299 299 299 299 299 299 299 299 299 299 299 299 299 298 298 298 298 298 298 297 297 297
296 295 295 296 299 301 303 303 303 302 303 304 302 299 297 296 297 297 298 299 301 301 301 300 301 303 304 304 303 302 301 300 300 301 301 300 300 300 299 300 300 300 300 300 300 300 299 299 300 301 300 300 301 301 299 298 299 299 299 300 299 299 299 299 299 299 299 299 299 298 298 298 298 298 298 298 298 298 298 298 297 298 297 297 297 297 297
295 295 296 298 301 302 301 300 300 301 303 304 302 298 296 296 296 297 299 300 301 302 301 302 302 303 305 305 303 301 301 301 301 300 300 301 300 300 300 301 302 300 299 300 299 299 299 299 300 301 301 301 301 300 298 299 299 299 299 299 299 299 299 299 299 299 299 298 299 299 298 298 298 298 298 298 297 298 298 298 298 298 297 297 297 297 297
296 296 298 300 301 302 301 299 298 298 300 301 299 298 297 298 299 299 300 301 301 301 301 303 303 302 302 303 302 301 301 302 301 301 300 300 299 299 299 301 301 301 302 302 301 299 299 299 301 303 302 301 300 299 298 299 299 299 299 299 299 299 299 299 299 299 299 299 299 299 298 298 298 298 298 298 297 297 298 298 298 298 297 297 297 297 297
299 300 301 302 302 303 302 299 297 297 298 298 299 300 300 300 301 302 301 300 301 301 301 303 303 301 301 302 302 302 301 301 301 301 300 300 300 300 300 300 300 301 303 303 299 298 300 302 304 303 300 298 298 299 299 299 299 299 299 299 299 299 299 299 299 299 299 299 299 299 299 299 298 298 297 297 297 297 297 297 297 297 297 297 297 297 297
302 303 303 303 302 302 301 299 298 298 299 300 300 301 300 300 301 301 300 300 300 301 301 302 302 300 301 302 301 301 301 301 303 303 301 300 300 301 300 300 300 301 302 301 299 299 302 303 304 303 300 298 298 299 299 299 299 299 299 299 299 299 299 299 299 299 299 299 299 299 299 299 298 297 297 297 297 297 297 297 297 297 297 297 297 297 297
302 303 303 302 300 299 298 298 298 300 301 300 299 299 299 299 300 300 300 301 302 301 301 302 301 300 301 301 301 300 300 301 302 302 302 301 300 300 300 300 299 301 302 301 299 299 300 301 303 303 301 298 298 299 299 299 299 299 299 299 299 299 299 299 299 299 299 299 299 299 299 298 297 297 297 297 297 297 297 297 297 297 297 297 297 297 297
303 303 303 301 299 298 298 299 299 300 300 299 299 299 299 300 299 300 302 303 302 300 300 301 301 300 300 301 301 300 300 300 300 300 301 301 299 299 300 300 299 300 301 299 298 300 302 302 302 301 300 298 298 299 298 299 299 299 299 299 298 299 299 299 299 298 298 298 299 299 298 298 297 297 297 297 297 297 297 297 297 297 297 297 297 297 297
302 302 301 300 300 300 300 300 300 299 298 299 300 300 300 300 299 300 302 302 301 300 300 301 301 300 300 301 300 300 300 300 300 300 300 300 298 299 301 301 299 300 300 299 299 302 304 301 300 300 299 298 298 299 298 298 299 299 298 298 298 298 298 298 298 298 298 298 298 298 297 297 297 297 297 297 297 297 297 297 297 297 297 297 297 297 297
300 301 301 301 301 300 300 300 299 299 299 300 300 300 300 300 301 301 301 300 300 301 301 300 300 301 301 301 300 300 300 300 299 299 300 299 298 299 301 301 300 300 300 300 300 302 302 301 301 301 300 298 298 299 298 298 298 298 298 298 298 298 298 298 298 298 298 298 297 297 297 297 297 297 297 297 297 297 297 297 297 297 297 297 296 296 296
300 301 301 301 300 299 300 300 298 298 299 300 300 301 301 301 303 304 302 300 300 301 301 300 301 301 301 301 300 301 300 300 299 299 299 299 299 300 301 300 300 299 299 300 301 302 301 301 301 300 299 298 298 298 298 298 298 298 298 298 298 298 298 298 298 298 298 298 297 297 297 297 297 297 297 297 297 297 297 297 297 296 296 296 296 296 296
300 300 299 298 298 298 298 299 298 298 300 300 301 303 304 304 304 304 302 300 300 301 300 300 300 301 301 300 300 300 300 300 300 299 299 299 300 301 300 299 300 300 300 300 301 302 300 299 298 298 298 298 298 298 298 298 298 298 298 298 298 298 298 298 298 298 298 298 298 297 297 297 297 297 297 298 297 297 297 297 297 297 296 296 296 296 296
300 299 298 298 298 297 298 299 299 301 301 301 301 302 304 303 302 301 300 300 300 300 300 300 300 300 300 299 300 300 300 299 299 299 299 300 300 300 299 299 300 301 301 300 300 300 299 298 298 298 298 298 298 298 298 298 298 298 298 298 298 298 298 298 298 298 298 298 298 298 298 298 298 298 298 297 297 297 297 297 297 297 297 297 296 296 296
300 298 299 300 300 298 298 299 300 301 301 301 300 301 301 300 300 300 300 300 301 300 300 300 300 300 300 300 300 300 299 300 300 300 300 300 300 299 299 301 301 300 300 299 299 299 299 298 298 298 298 298 298 298 298 298 298 298 298 298 298 298 298 298 298 298 298 298 298 298 298 298 298 298 298 298 297 297 297 297 297 297 297 297 297 296 296
299 299 300 301 301 299 299 300 300 299 300 301 301 300 300 300 300 300 300 300 300 300 300 300 299 299 300 300 300 299 299 300 301 300 299 300 300 300 300 301 300 299 299 300 300 300 300 299 298 298 299 298 298 299 298 298 298 298 298 298 299 298 298 298 298 298 298 298 298 298 298 298 298 298 298 298 298 298 298 297 297 297 297 297 297 297 296
300 299 299 300 300 300 299 300 300 299 299 300 300 300 300 300 300 300 300 300 300 300 300 299 299 300 300 299 300 301 300 300 300 300 300 300 300 300 300 300 300 299 299 300 300 300 299 299 299 299 299 299 299 299 299 298 298 298 298 298 298 298 298 298 298 298 298 298 298 298 298 298 298 298 298 298 298 298 298 297 297 297 297 298 297 297 297
300 299 299 300 301 301 300 301 302 301 300 300 300 300 300 300 300 300 300 300 299 300 300 299 299 300 300 299 300 301 300 299 300 301 301 301 300 300 300 300 300 299 300 299 299 299 299 299 299 299 299 299 299 299 299 299 299 299 298 298 298 298 298 298 298 298 298 298 298 298 298 298 298 298 298 298 298 298 298 297 297 297 297 297 297 297 297
299 299 299 300 301 301 300 301 302 302 301 300 300 300 300 300 300 300 300 300 300 300 300 300 300 300 301 301 301 300 299 299 300 301 301 301 301 301 301 300 300 300 300 299 299 299 299 299 299 299 299 299 299 299 298 299 298 298 298 298 298 298 298 298 298 298 298 298 298 298 298 298 298 298 298 298 298 297 297 297 297 297 297 297 297 297 297
299 299 300 299 300 300 300 300 301 300 300 300 300 300 300 300 300 300 300 300 300 300 299 299 299 300 301 301 300 299 299 300 301 301 300 300 300 301 301 301 300 299 299 298 299 299 299 299 298 299 299 299 299 299 298 298 298 298 298 298 298 298 298 298 298 298 298 298 298 298 298 298 298 298 298 298 298 297 297 297 297 297 297 297 297 297 297
Wind_Speed
13 12 10 10 11 13 14 15 16 14 10 5 4 4 2 1 0 2 4 4 3 3 1 3 1 2 4 5 6 9 7 5 7 8 6 6 5 5 4 3 3 3 2 3 5 6 4 2 1 2 2 3 3 3 6 6 5 3 1 3 3 2 2 1 3 4 3 4 2 8 9 7 5 4 4 3 1 4 6 5 4 3 1 2 3 1 2
12 10 9 10 11 12 13 14 14 13 11 8 7 6 3 2 1 5 5 5 3 2 1 1 2 3 4 4 6 8 5 3 6 5 3 4 3 2 3 5 4 3 3 3 5 6 3 2 1 1 2 3 3 7 12 10 5 2 1 1 3 3 0 1 2 2 3 4 2 3 5 5 3 3 5 6 5 1 3 2 4 3 3 5 5 2 3
10 9 9 9 11 12 12 12 11 11 9 8 9 8 5 3 1 5 6 8 6 1 1 2 1 2 3 3 4 6 5 4 6 5 3 5 5 1 3 5 4 4 4 4 5 6 3 1 2 2 1 3 4 7 14 13 6 5 7 9 5 0 0 2 3 2 3 2 2 3 1 1 1 3 7 10 8 4 2 3 4 2 4 5 5 3 3
9 9 9 9 11 12 11 10 9 8 7 7 8 8 4 2 1 2 4 6 6 1 3 3 2 0 2 2 3 5 4 5 9 10 5 8 9 4 3 6 5 5 5 5 6 6 4 3 3 3 4 3 3 6 13 14 10 12 17 17 7 2 2 2 3 4 5 4 3 3 4 5 3 5 9 10 9 6 3 5 4 5 5 2 3 7 9
9 9 9 10 11 12 11 10 6 6 7 7 7 6 4 2 0 1 2 1 1 2 3 3 3 1 2 1 3 5 5 5 8 9 5 8 11 5 4 8 6 4 5 4 4 5 5 5 4 4 5 3 4 7 11 11 12 15 15 13 7 3 4 4 3 1 1 2 2 5 9 9 7 7 9 11 11 10 7 3 3 7 7 2 4 11 13
8 8 9 10 11 11 11 9 5 4 6 6 4 4 4 2 1 3 3 1 1 1 1 3 4 4 4 2 2 5 6 5 4 5 5 8 11 6 4 9 8 6 5 3 2 5 4 4 4 3 4 3 4 6 6 7 11 12 8 8 6 3 3 5 5 5 4 5 4 7 11 11 10 10 10 10 11 10 8 4 2 3 6 6 7 12 12
8 9 9 10 11 11 11 8 5 4 6 7 6 5 4 3 2 3 3 0 3 2 3 6 7 5 3 2 3 3 5 5 3 4 4 5 8 6 3 7 10 8 6 4 3 3 2 3 4 2 4 5 3 3 3 5 8 7 5 4 4 2 2 4 4 4 6 9 7 5 9 9 9 10 9 9 9 7 7 6 5 2 5 10 13 12 8
8 8 8 9 10 11 11 9 6 5 5 4 6 8 6 5 3 3 4 3 1 3 4 6 6 4 3 2 1 2 3 4 4 4 3 2 5 5 4 7 9 6 5 5 2 1 2 2 4 3 3 4 2 2 1 1 5 4 2 2 4 3 1 3 3 3 5 8 10 7 7 9 8 10 10 10 10 8 6 6 6 6 6 10 15 13 5
8 8 8 9 10 10 11 10 7 6 3 1 5 9 7 5 5 5 3 3 4 2 4 4 4 2 3 0 1 2 2 3 3 2 2 2 0 2 3 6 6 5 6 5 3 4 3 5 9 9 6 5 4 2 2 2 1 2 1 1 2 3 2 2 2 3 3 6 8 6 4 10 10 10 12 11 8 5 4 4 3 4 7 10 12 9 5
8 8 7 8 9 10 12 12 10 8 5 4 7 9 7 5 6 7 4 2 7 4 2 3 4 2 3 2 2 2 3 4 3 2 4 4 2 2 4 4 4 4 5 5 8 13 14 15 19 19 16 14 13 10 9 6 3 2 1 3 1 3 4 1 1 2 2 6 7 5 2 6 6 6 8 7 5 3 2 3 4 4 5 7 7 5 5
7 7 7 7 8 9 11 12 12 10 9 9 11 12 10 7 6 8 7 4 6 6 3 4 4 3 6 6 2 3 3 4 3 2 1 5 4 4 5 4 3 1 5 10 15 20 24 24 23 21 20 20 16 9 9 6 1 3 3 2 1 2 5 3 1 2 1 5 6 3 2 3 1 1 3 5 5 3 2 3 5 5 3 3 5 5 6
7 7 6 7 7 8 10 12 11 11 12 12 13 13 12 9 8 9 9 5 4 6 3 3 4 4 8 11 6 1 1 4 5 2 2 4 6 7 7 2 2 2 12 19 22 23 23 17 12 11 13 14 6 6 9 7 7 8 5 5 3 3 4 3 2 3 1 2 4 3 2 1 1 1 3 5 6 4 6 8 7 8 6 6 8 8 9
7 6 6 7 7 7 8 10 10 10 11 13 15 14 12 10 9 11 10 7 3 5 2 3 11 14 12 12 9 5 7 11 9 6 5 6 6 8 8 3 2 11 20 22 20 17 11 6 4 3 3 2 4 8 9 10 11 9 6 6 5 5 4 3 2 2 2 1 2 2 1 2 2 3 5 6 5 5 6 8 8 8 6 7 9 9 11
6 6 6 7 7 7 7 8 9 8 10 12 14 13 11 10 10 10 10 8 3 5 5 4 9 12 10 10 9 6 10 15 12 7 6 6 7 9 11 10 12 18 20 15 11 7 3 2 3 3 4 5 4 3 4 7 9 10 9 6 4 5 4 3 2 1 2 2 2 2 1 3 3 3 4 3 1 2 2 3 4 6 5 9 11 10 11
6 6 7 7 7 7 7 7 7 7 9 12 13 13 12 11 10 10 10 9 5 6 11 6 4 5 6 9 10 6 5 8 7 7 7 4 5 9 13 14 16 19 16 8 3 2 2 2 3 3 3 2 2 1 2 2 4 7 7 7 6 5 3 4 3 1 1 3 3 2 1 1 1 2 4 3 4 4 2 1 3 6 5 14 15 12 12
6 6 7 7 7 8 7 8 7 7 9 11 13 14 12 11 11 10 9 9 6 3 8 7 7 8 6 7 10 8 4 3 3 4 5 5 7 13 15 14 16 18 15 7 2 3 3 2 2 2 1 0 2 0 2 1 2 5 5 7 11 9 4 4 4 2 2 3 3 2 1 1 2 5 7 6 5 6 4 1 2 6 4 15 16 12 15
6 6 6 6 7 8 8 8 7 7 8 10 13 15 13 13 12 11 13 17 14 7 8 9 12 13 9 5 8 8 5 4 3 1 2 4 7 13 18 17 16 19 17 8 2 4 5 2 2 3 1 1 2 2 1 1 2 4 6 6 9 8 5 4 4 2 2 3 2 2 1 1 3 6 9 10 10 8 3 2 2 4 7 15 16 13 14
6 6 6 6 7 7 8 8 7 7 7 9 12 14 14 14 12 10 13 17 14 9 10 12 13 13 9 5 6 6 5 5 3 1 3 4 5 10 16 14 13 15 15 7 2 4 5 2 2 3 1 2 2 3 1 2 1 1 2 3 4 4 3 3 4 3 3 3 3 1 1 2 4 9 12 9 5 2 1 2 4 4 10 15 17 16 12
5 6 6 6 6 6 7 8 8 8 8 7 8 11 13 14 12 11 13 16 14 10 9 13 16 15 12 12 12 10 9 9 7 4 1 3 9 13 10 5 9 11 10 6 3 3 4 3 2 3 2 3 2 2 3 3 1 0 1 3 3 2 2 3 2 2 2 3 3 1 1 3 8 12 10 6 3 2 1 2 2 8 12 14 17 19 17
4 5 5 5 5 7 8 8 8 9 9 8 8 10 12 12 12 12 14 16 17 14 11 12 17 17 14 16 17 15 14 14 11 6 2 3 13 14 4 2 9 10 7 5 4 2 3 3 3 2 2 2 2 2 3 3 3 2 2 2 2 1 2 2 1 2 2 3 4 2 2 7 14 11 5 5 4 3 3 10 12 14 16 17 20 22 24
2 3 4 4 5 6 7 7 8 8 8 8 8 9 11 11 11 12 12 13 14 12 10 11 16 17 16 15 16 16 16 15 12 9 4 4 12 10 3 2 6 6 3 3 2 2 2 2 2 2 2 2 2 2 2 2 4 4 2 4 2 2 1 1 1 2 2 2 2 2 1 7 14 10 4 4 5 7 13 17 18 17 19 20 21 22 27
1 1 2 3 3 4 4 5 6 6 5 5 4 5 8 9 11 11 10 10 11 10 9 10 13 16 15 14 15 15 15 15 15 13 8 8 12 11 6 2 5 4 4 4 2 1 2 1 1 2 2 2 3 3 2 3 2 4 4 4 3 2 5 7 3 3 4 4 3 5 6 11 17 18 15 14 17 19 22 24 22 20 20 23 23 22 25
2 2 1 2 2 3 3 4 5 4 3 3 3 4 6 7 7 8 8 9 11 11 10 10 11 11 12 12 13 14 13 14 17 16 10 8 9 10 9 9 8 5 6 7 3 2 1 0 0 2 2 2 2 4 4 4 3 2 4 4 3 4 9 10 6 5 7 8 8 10 13 16 20 21 21 22 22 22 23 26 27 24 23 25 25 24 24
3 3 3 3 2 2 2 2 3 3 3 4 5 5 4 5 6 7 7 8 9 9 8 9 9 9 10 10 10 10 9 11 14 16 14 13 10 7 8 10 9 6 8 11 6 1 1 1 1 2 3 2 2 3 4 4 2 2 3 4 2 2 6 7 4 4 5 5 5 8 13 16 19 21 21 22 22 21 22 24 25 25 25 25 25 25 24
3 3 3 3 4 4 3 2 2 3 4 4 5 5 5 5 6 6 6 7 7 6 5 5 8 10 9 8 9 9 7 8 11 13 14 15 14 10 9 11 11 9 10 11 10 7 6 3 2 3 3 3 4 3 2 2 2 2 4 2 2 2 6 6 3 3 4 4 6 10 15 17 18 20 20 19 19 19 19 20 19 19 18 18 18 18 17
4 4 4 4 4 6 6 4 3 3 4 4 4 6 9 10 9 7 7 9 9 7 4 3 7 10 8 7 10 11 7 8 10 11 13 14 14 13 12 13 13 12 11 12 13 12 8 4 3 3 3 3 5 3 2 2 2 3 4 2 2 2 4 3 3 5 5 4 8 12 13 12 13 18 18 16 16 17 17 18 17 17 16 14 13 11 9
4 4 4 4 4 6 7 7 5 4 5 5 4 7 12 13 12 10 8 7 6 5 2 1 5 9 9 7 10 12 11 12 11 11 12 13 13 14 13 13 13 14 14 13 13 12 9 5 4 2 1 2 3 3 3 3 3 4 3 5 5 5 3 3 5 5 2 3 8 11 7 4 7 15 17 15 15 17 17 16 15 15 15 13 12 12 9
3 3 3 3 4 6 8 8 7 6 8 8 6 7 11 12 12 10 8 7 6 6 5 4 5 7 7 6 7 9 11 12 12 10 9 10 12 14 14 12 13 15 15 12 10 8 6 4 3 2 2 3 3 4 3 3 5 4 3 6 7 5 4 3 5 5 4 7 12 14 11 8 10 14 15 14 14 14 15 16 14 12 10 9 9 9 8
3 2 1 2 4 6 8 9 8 9 10 9 7 6 7 9 10 9 8 7 8 9 10 8 5 4 4 5 6 6 6 9 11 10 8 8 11 14 14 14 14 14 14 12 8 5 5 5 3 3 4 3 1 2 3 3 4 3 3 6 9 7 6 8 10 9 6 8 13 15 15 13 12 12 12 12 12 12 12 13 12 9 7 6 5 5 4
2 2 2 4 6 8 9 10 9 10 10 8 6 4 5 5 7 8 8 7 7 7 8 6 4 3 4 6 8 6 5 6 10 10 9 9 10 12 12 14 14 13 13 12 9 5 4 4 4 5 7 6 3 2 2 3 3 2 5 12 15 13 11 12 14 11 9 10 14 15 16 16 15 13 12 12 12 11 11 11 10 8 6 5 5 4 3
3 4 5 7 8 9 10 10 10 9 8 5 4 4 4 3 3 6 7 6 6 6 6 6 4 3 3 5 7 8 6 6 8 9 9 9 9 8 9 12 13 12 11 11 9 6 4 3 3 5 8 9 7 3 2 4 3 1 6 16 19 16 14 13 13 13 13 15 17 17 18 19 17 14 13 14 13 11 11 10 9 7 5 3 3 4 2
6 6 7 8 9 10 10 10 8 7 6 5 5 5 4 3 2 2 4 5 5 5 5 5 3 1 1 2 6 8 7 6 7 8 10 10 10 8 7 8 9 10 10 8 6 5 5 4 4 5 8 9 6 3 3 5 3 3 9 18 19 16 15 14 13 14 14 14 15 15 14 13 12 10 12 13 11 8 8 7 5 4 3 2 1 2 3
7 8 9 10 10 11 10 9 8 7 7 7 8 7 6 4 3 2 3 5 5 4 4 3 2 1 1 2 4 8 7 7 7 7 8 10 10 8 7 5 5 7 9 6 3 3 5 4 3 5 7 8 5 3 3 3 5 10 14 15 13 13 15 14 13 14 14 13 12 12 11 10 10 8 7 7 6 5 4 3 2 2 3 2 1 4 6
8 10 11 12 12 12 11 9 8 7 7 8 8 7 6 5 4 4 5 5 5 4 4 3 2 1 0 2 2 6 7 6 7 6 6 8 11 11 8 5 3 5 8 7 4 3 3 3 3 3 4 5 6 5 3 1 5 12 15 11 9 11 14 13 12 14 14 14 13 12 10 9 9 7 7 8 7 5 4 3 3 4 4 3 3 5 7
11 12 13 14 15 13 11 9 7 5 5 6 6 6 4 4 5 5 6 5 5 4 3 3 2 2 1 1 1 4 6 6 7 7 5 6 9 10 8 5 3 3 5 4 3 2 2 3 3 1 2 3 4 2 1 4 9 12 13 12 10 11 12 14 14 14 14 13 12 10 7 6 6 4 5 8 8 6 4 5 6 7 6 5 4 5 8
13 14 14 14 13 11 9 7 6 5 4 4 4 4 3 5 7 8 7 7 7 6 4 3 2 2 2 2 1 3 6 6 6 7 6 4 5 8 9 5 2 3 4 3 3 3 3 4 3 1 2 4 3 2 7 13 16 14 12 10 9 8 10 11 13 14 13 11 10 8 7 7 6 3 2 3 7 7 7 8 10 10 9 7 6 6 8
14 14 13 11 10 8 7 6 5 4 4 5 5 6 6 7 8 8 7 8 8 8 6 5 3 2 3 3 1 4 5 4 4 5 7 5 4 5 7 5 2 3 4 4 3 3 4 4 4 3 2 3 4 7 11 15 15 12 11 10 7 5 8 12 14 14 12 10 9 7 6 5 4 1 1 2 4 6 9 11 11 11 10 10 8 8 8
14 12 10 9 7 5 4 5 5 5 6 6 6 6 5 5 5 5 5 6 6 6 6 5 4 5 6 5 3 5 4 3 3 4 5 6 4 4 4 4 2 3 2 1 3 6 5 3 3 4 2 3 7 12 14 13 11 10 9 8 7 5 7 11 14 13 12 10 8 8 7 6 3 2 2 2 1 2 5 8 10 10 9 9 10 8 7
11 10 9 8 7 4 2 3 6 7 6 5 4 3 3 3 2 1 2 4 4 3 4 4 4 7 7 5 3 6 5 4 3 3 3 4 4 2 2 2 2 3 2 0 4 6 4 2 3 4 2 3 6 13 13 11 10 8 6 5 4 5 5 7 10 10 9 8 7 7 7 6 4 3 2 2 2 3 3 5 9 10 8 9 9 8 7
9 9 8 7 7 6 5 5 6 6 4 3 3 3 2 3 2 1 1 2 2 2 3 3 4 8 10 7 5 6 6 4 3 2 1 2 3 2 1 1 2 2 2 1 4 4 2 1 3 3 1 2 5 13 14 11 9 8 5 4 4 4 5 5 4 4 4 4 6 7 6 6 6 5 4 4 3 3 2 5 9 9 8 9 10 9 8
9 8 7 7 7 8 8 7 6 5 4 3 3 2 1 1 2 1 2 2 1 1 2 3 3 5 9 9 6 5 5 4 4 3 2 2 3 2 1 0 2 2 2 2 4 3 2 2 3 1 2 3 9 13 12 9 9 8 6 5 5 5 7 8 6 3 2 2 4 7 8 8 7 5 4 4 3 2 2 4 7 9 9 9 9 10 9
8 8 8 8 8 8 7 5 4 4 3 3 2 2 1 0 1 1 2 2 1 1 2 4 4 5 7 7 6 4 4 3 4 4 3 1 2 2 1 1 2 3 1 3 3 3 3 3 1 2 4 7 12 11 7 6 5 4 4 4 4 3 3 5 5 4 2 1 3 6 7 7 5 4 3 3 3 3 3 3 6 9 10 9 8 10 9
9 9 8 7 6 5 4 3 2 2 2 2 2 1 1 1 1 1 1 1 2 2 2 3 4 6 5 4 4 4 4 3 3 4 3 1 1 1 2 2 2 1 2 2 2 3 1 1 2 4 7 10 11 7 5 4 3 2 3 4 4 5 3 1 3 5 3 2 2 4 5 4 3 3 2 3 4 4 4 4 5 6 7 7 8 10 9
8 7 6 4 3 3 1 1 1 1 1 0 1 2 1 1 1 1 1 1 1 3 4 5 5 5 3 2 2 3 3 3 3 3 2 1 1 2 2 0 1 2 1 1 2 1 1 1 1 5 9 10 7 4 4 4 2 2 3 4 4 5 6 5 3 5 5 3 2 2 3 4 3 3 2 3 3 4 4 4 4 5 6 7 8 10 9
8 6 4 2 2 1 0 1 1 1 1 1 1 2 3 2 2 2 2 3 4 7 9 10 8 6 4 3 2 1 1 2 2 1 0 1 2 2 0 2 1 1 2 1 2 2 1 2 2 3 8 8 4 3 3 2 1 2 3 3 3 4 6 7 5 5 6 6 4 4 5 5 6 6 6 5 5 5 6 5 5 5 7 8 9 10 11
6 4 3 2 1 1 0 1 1 1 1 2 3 5 6 6 5 6 8 9 10 11 10 9 8 6 4 2 2 1 2 2 1 0 1 2 2 0 1 1 1 3 2 2 2 1 1 3 2 4 7 6 5 4 3 1 1 1 2 3 4 6 6 5 5 5 5 7 9 10 11 11 12 12 12 11 9 8 8 8 7 6 7 8 9 11 11
5 3 3 2 1 1 0 1 1 1 3 7 11 14 15 14 14 13 13 12 12 10 8 7 7 6 4 3 2 1 1 2 1 1 1 2 1 1 1 2 1 1 1 1 0 2 3 2 2 6 6 4 3 1 1 2 1 1 2 4 4 4 4 5 7 7 6 6 9 11 12 12 12 11 11 12 12 13 12 12 12 10 9 8 9 11 10
4 3 2 1 1 1 1 2 2 3 9 15 18 17 16 16 16 15 13 11 10 9 7 6 5 4 2 3 1 0 1 3 2 1 1 2 2 1 2 2 1 1 1 3 2 3 2 2 5 6 4 3 3 2 2 1 0 1 3 4 4 4 5 6 8 9 9 10 10 11 12 12 11 9 8 9 10 11 13 14 15 15 12 10 10 11 11
4 3 1 0 1 2 3 2 1 3 8 15 18 17 16 17 17 14 11 9 9 8 8 8 6 3 2 2 1 1 1 2 1 0 2 2 1 0 1 1 1 2 1 2 3 3 4 4 3 2 2 2 1 2 2 2 3 5 7 9 11 11 10 9 9 10 10 11 10 10 10 9 9 9 9 9 9 9 11 12 13 13 12 11 11 12 12
4 2 1 1 0 3 6 5 4 2 3 9 15 16 17 17 15 12 9 8 7 7 7 6 5 3 1 2 2 1 1 1 0 2 2 1 1 1 2 1 2 3 3 2 2 1 4 4 1 3 4 4 4 5 6 7 9 10 11 12 13 12 11 12 11 10 9 9 9 9 10 9 10 10 10 10 11 11 11 11 10 11 11 11 11 12 12
2 2 1 1 1 3 5 3 4 2 4 9 14 16 15 14 12 10 8 8 7 5 4 4 3 3 3 2 1 0 1 2 1 2 0 1 1 2 2 2 4 5 3 2 2 3 3 3 5 6 6 6 6 6 8 10 11 11 12 12 11 11 12 13 13 11 9 10 10 9 9 9 10 11 10 9 10 11 11 10 10 11 11 11 12 11 11
2 1 0 1 2 3 2 1 4 7 8 10 13 14 13 12 10 8 7 7 6 5 4 3 2 2 2 0 1 0 0 1 2 1 1 1 1 2 3 4 5 5 3 1 3 3 2 4 5 6 6 7 7 7 9 11 11 11 11 11 11 10 11 11 10 10 11 11 11 10 9 10 11 12 10 8 8 10 10 9 10 10 11 11 11 10 9
Wind_Direction
348 349 351 354 356 355 352 347 341 342 0 28 23 15 59 133 129 171 175 197 200 154 92 346 313 220 291 297 302 314 303 290 322 338 3 15 356 339 340 342 359 23 11 355 3 358 3 73 104 279 276 254 228 135 113 130 126 92 43 296 318 4 82 349 295 289 295 282 121 84 62 54 53 4 353 14 259 181 152 172 166 115 115 109 84 124 259
351 352 356 358 359 356 353 350 342 337 349 14 21 19 5 327 218 182 184 192 188 133 113 315 306 286 309 330 323 325 317 305 343 347 344 4 351 327 347 342 343 360 359 28 30 7 11 91 56 306 292 316 350 52 70 80 82 72 89 340 332 321 317 71 357 339 334 332 20 53 32 41 40 317 337 357 344 65 110 114 103 117 196 153 126 211 239
355 357 1 2 359 357 355 354 342 330 342 5 8 2 356 8 170 192 193 204 220 245 104 163 213 290 328 345 322 326 324 332 9 8 340 357 3 7 341 335 347 13 16 45 31 17 36 38 354 6 334 329 346 38 66 70 70 78 48 23 14 322 79 84 104 161 196 201 186 195 218 33 351 326 357 7 1 10 96 111 101 148 198 153 137 171 169
360 3 7 5 1 359 359 360 345 328 343 6 0 356 9 70 135 199 182 196 212 200 49 73 116 222 11 5 317 334 330 330 7 15 11 11 10 16 360 352 12 19 18 49 30 6 18 21 17 11 348 323 317 29 65 65 58 61 39 20 25 89 50 68 122 159 191 202 202 177 134 102 52 7 11 11 358 357 83 119 148 164 158 165 191 151 139
6 10 11 7 5 4 4 9 354 330 350 1 353 359 30 79 141 155 140 174 154 63 14 44 81 46 67 77 318 356 358 329 0 11 7 14 13 14 10 13 31 14 3 51 35 347 359 25 22 350 327 302 317 18 60 62 55 62 44 23 41 66 359 349 357 325 217 138 114 103 97 94 77 44 22 8 359 9 47 90 177 141 129 200 206 148 142
12 16 14 11 12 12 12 21 16 353 15 28 26 34 44 41 46 79 90 193 209 55 24 92 69 30 54 69 338 12 12 348 358 347 333 13 24 26 4 5 17 8 2 65 52 351 2 12 359 330 322 325 331 357 32 45 57 75 65 41 70 90 357 349 330 319 355 32 66 91 89 85 73 57 34 11 3 11 28 3 285 145 146 178 167 148 146
19 21 20 18 19 20 23 31 33 42 58 61 65 70 59 51 60 54 52 210 214 187 123 104 77 36 37 30 351 12 4 344 329 326 333 3 15 31 35 350 351 356 16 75 79 21 35 354 322 300 327 335 330 351 5 13 34 64 84 53 61 94 22 345 320 313 8 17 13 56 89 88 64 52 37 15 2 3 26 13 347 43 133 142 135 133 129
27 27 26 24 24 29 34 36 40 61 70 52 62 73 67 60 45 355 351 358 261 186 145 101 85 32 19 36 319 336 1 338 310 334 19 11 343 18 35 340 334 343 21 54 73 82 140 208 257 272 330 332 334 21 27 305 348 15 95 67 23 47 27 314 339 10 7 9 2 10 83 95 66 42 29 15 2 359 16 13 8 44 90 117 122 123 107
34 34 35 31 31 36 41 42 45 57 73 112 91 81 78 82 56 20 352 351 9 123 138 98 101 35 4 149 239 317 306 297 302 326 30 78 347 342 340 329 330 344 7 15 321 297 292 258 262 263 261 266 261 251 216 185 35 360 57 68 35 83 85 314 11 44 346 356 358 347 71 84 60 30 13 3 355 351 354 341 354 76 110 117 119 126 137
38 42 45 39 39 44 44 46 49 53 73 108 99 86 85 100 75 53 79 50 9 27 104 59 61 40 332 261 229 254 264 298 353 16 339 345 355 313 311 326 350 354 343 319 297 301 303 294 289 284 276 270 262 258 264 257 212 201 107 66 71 129 120 109 53 80 337 344 347 316 357 61 46 14 359 342 311 290 315 349 19 57 113 134 141 150 148
44 51 56 50 51 54 48 46 47 52 67 79 78 74 68 69 66 56 74 82 359 2 46 50 38 5 341 337 298 228 255 311 341 105 309 316 328 330 314 321 7 346 290 300 308 311 307 300 292 285 275 270 273 298 311 298 145 118 129 109 38 93 120 136 138 118 311 328 342 347 34 61 67 352 2 340 313 314 50 56 40 38 56 127 132 127 120
49 59 66 61 62 66 56 48 45 47 59 64 63 64 58 54 70 71 77 92 359 0 50 67 21 1 4 12 12 316 272 316 299 258 244 289 318 328 314 304 122 306 315 318 316 314 312 307 294 275 265 262 271 26 24 23 53 69 101 128 117 102 109 117 108 110 131 337 6 47 73 71 227 292 358 357 334 1 78 77 49 34 39 69 88 97 102
55 65 74 71 71 76 64 55 50 48 58 60 55 59 60 60 83 92 88 91 32 354 29 31 17 23 25 22 21 20 21 11 347 311 276 275 300 317 312 303 307 320 326 325 315 311 315 320 322 305 294 320 69 71 58 44 37 43 71 102 122 130 119 104 78 75 107 63 38 87 140 315 325 337 360 14 360 1 51 67 44 26 40 73 82 87 98
60 69 79 77 77 85 77 65 60 55 60 60 52 54 61 63 82 98 96 99 79 13 34 25 6 19 27 18 16 18 14 13 7 343 310 284 281 301 310 319 332 336 336 328 315 319 350 16 1 360 6 27 48 56 59 53 31 26 42 58 86 117 123 113 71 40 110 104 61 71 59 333 349 359 350 1 349 322 4 70 49 23 64 106 100 96 106
64 73 82 82 83 90 88 80 75 67 66 64 55 55 63 64 74 95 102 113 120 33 33 30 342 7 25 18 20 23 5 3 360 352 354 340 309 321 329 339 350 349 345 338 331 3 41 51 44 29 12 40 83 335 348 41 20 17 33 49 55 72 124 137 120 82 102 106 91 67 57 338 305 296 291 258 210 228 261 127 55 19 90 130 123 115 123
67 76 82 84 88 94 93 86 83 80 75 70 61 61 70 74 77 92 99 103 117 35 18 34 52 52 46 25 24 30 23 1 338 332 351 353 338 340 349 5 9 0 355 358 33 39 37 67 98 93 58 141 154 146 348 5 348 341 358 41 49 46 50 87 97 89 77 96 107 102 99 236 269 278 288 298 296 294 299 129 63 6 80 137 137 133 137
70 77 82 89 92 96 96 86 81 84 82 76 69 66 72 83 86 91 90 89 91 74 38 48 62 57 49 22 16 21 11 347 341 356 341 315 318 337 353 10 17 10 10 18 23 24 38 57 67 75 58 310 123 128 20 29 23 333 335 15 37 35 28 42 58 52 54 77 89 79 64 262 276 288 298 313 321 322 338 133 138 23 84 126 135 138 147
71 78 85 95 97 99 100 89 81 87 87 81 77 73 76 87 93 96 96 94 93 78 53 56 63 63 62 53 35 31 15 348 341 354 325 303 306 328 340 360 17 12 13 28 53 35 39 27 45 88 69 333 65 111 48 32 65 326 342 25 39 32 27 48 65 49 48 78 91 67 291 271 294 302 309 322 332 350 71 190 208 132 106 113 118 120 133
69 77 83 94 101 105 106 96 87 89 95 97 93 84 83 90 96 98 98 96 97 96 79 66 65 69 70 64 59 57 52 41 35 36 9 318 334 331 326 8 26 6 3 26 47 43 36 359 344 104 82 359 16 84 61 44 30 217 63 44 35 28 6 25 56 29 37 82 83 71 238 326 329 314 320 7 68 177 188 17 132 133 121 112 110 115 122
69 77 80 89 104 111 113 106 92 91 99 105 105 96 90 91 96 100 103 102 102 104 98 76 66 67 66 58 55 54 53 47 37 40 135 279 335 346 358 49 5 354 2 30 23 15 39 2 325 30 61 350 343 71 71 50 30 46 91 59 39 71 53 38 30 13 45 70 49 64 213 332 343 330 323 24 37 194 114 69 79 105 113 111 111 117 122
74 78 80 85 104 117 123 117 100 96 100 100 103 108 103 100 100 103 109 114 109 104 102 87 71 65 62 56 51 51 52 51 40 30 41 11 3 19 117 217 330 347 9 32 20 343 356 335 319 14 35 330 349 54 93 71 27 8 75 100 60 4 62 130 263 348 73 98 42 64 214 354 15 37 81 53 60 111 107 90 82 88 99 107 110 115 121
172 119 95 91 100 113 126 129 120 114 100 83 90 118 119 111 105 103 105 107 105 104 111 102 80 67 64 59 51 46 48 50 43 32 39 51 43 53 84 35 6 15 8 23 61 353 340 349 355 40 33 355 12 35 55 88 51 342 6 63 41 28 102 106 89 45 73 100 109 103 86 59 59 74 86 84 86 97 103 100 91 85 93 104 106 109 117
209 204 176 132 116 108 120 136 139 130 101 74 86 121 133 126 109 102 107 109 107 109 115 112 96 79 71 65 56 48 45 45 39 34 48 72 60 53 49 28 15 9 12 25 31 244 239 154 168 87 70 28 42 50 39 64 83 7 28 69 79 100 103 96 91 90 78 79 95 100 88 79 79 83 86 88 88 91 96 97 92 89 95 102 104 106 111
224 221 217 198 177 157 139 143 146 138 111 86 77 85 115 131 117 109 116 119 111 106 106 104 95 81 76 72 62 52 51 49 38 36 51 63 56 46 35 21 12 0 8 18 17 336 130 43 345 78 74 15 35 80 64 58 66 47 68 71 5 16 74 79 89 107 90 85 103 105 99 95 92 89 88 87 86 87 90 92 93 94 96 99 102 103 103
240 240 234 216 206 201 192 176 157 141 117 87 68 67 88 110 110 103 106 111 110 106 104 94 84 85 94 86 58 47 58 62 47 41 50 53 49 47 42 33 28 15 13 30 49 64 71 52 33 82 79 13 16 67 94 77 75 85 81 63 319 25 78 83 76 64 80 124 131 111 106 107 103 99 98 95 92 91 91 93 99 101 100 102 106 107 108
250 250 250 238 219 210 203 191 174 153 131 108 84 77 78 80 81 86 101 112 111 106 106 102 93 97 107 86 51 45 66 87 68 56 56 54 49 46 42 37 39 43 52 66 68 65 67 65 60 87 83 18 18 46 74 65 66 77 63 15 324 73 81 82 95 87 79 105 118 108 98 95 102 109 110 106 104 104 100 98 102 107 110 114 116 117 125
266 265 264 251 224 211 200 187 177 161 143 132 109 81 73 68 67 74 91 109 115 110 101 102 106 107 105 84 58 53 68 85 78 63 60 58 49 41 35 35 45 59 70 73 65 59 64 63 47 58 73 30 27 42 61 68 74 78 44 349 10 72 99 91 101 116 156 176 148 132 118 111 124 122 120 116 114 115 113 109 107 106 104 103 105 112 121
285 288 283 253 212 199 190 181 174 159 146 142 133 102 78 63 56 58 69 81 94 114 124 112 108 112 106 89 70 54 57 68 65 51 53 58 46 35 35 43 55 62 68 72 64 57 58 45 21 9 27 45 41 23 24 56 66 61 4 348 25 78 156 160 125 142 175 166 153 144 138 145 142 131 127 128 124 119 117 116 113 110 103 93 95 108 121
314 315 292 204 176 175 174 171 167 159 153 154 151 117 81 66 60 58 66 79 88 109 124 117 103 105 96 83 83 71 55 58 55 48 59 72 54 40 45 59 65 65 70 75 74 72 71 61 53 44 28 31 76 37 21 54 66 31 355 31 57 88 136 134 124 120 121 147 154 148 142 142 139 134 141 144 135 122 118 120 120 117 110 98 93 107 138
21 51 110 142 150 158 161 161 161 157 152 154 156 126 90 79 65 50 56 81 93 107 118 113 103 114 95 78 84 85 68 57 56 57 68 72 56 47 54 64 67 68 71 69 63 62 69 58 48 44 33 34 83 113 76 85 90 7 28 63 81 99 113 115 117 114 117 139 146 139 133 129 122 119 133 147 147 135 126 128 129 120 113 109 104 115 162
90 104 119 131 139 147 151 153 154 150 140 141 153 134 100 87 51 33 49 85 100 100 100 96 102 126 107 77 69 59 50 55 59 60 64 63 58 57 57 59 63 65 64 63 58 56 62 55 34 26 28 40 62 100 119 97 90 352 57 76 84 91 95 104 115 119 125 134 132 124 123 125 122 116 119 131 141 134 123 126 127 114 114 118 93 95 142
112 117 122 128 134 141 145 144 141 135 123 113 119 114 98 99 94 41 60 100 109 97 90 97 107 107 96 82 57 44 55 84 78 62 58 57 60 69 62 54 58 55 46 49 56 45 45 61 55 30 31 47 65 91 87 88 123 160 106 92 87 84 85 96 111 118 129 141 135 119 113 118 124 122 117 123 133 130 122 131 134 118 127 151 89 106 155
119 119 122 127 131 132 131 126 119 120 120 108 97 89 86 102 121 109 102 117 119 92 72 90 123 103 122 137 68 40 52 80 73 56 54 46 41 46 50 49 60 49 36 37 66 55 45 57 63 42 38 49 71 88 66 80 147 143 119 104 100 98 95 96 100 106 117 131 127 111 103 107 116 125 129 137 147 144 133 138 145 140 144 149 158 167 167
126 123 122 125 125 120 115 109 107 115 119 105 84 71 77 100 113 112 110 114 116 94 65 62 85 80 102 154 86 38 41 55 53 48 51 41 33 35 42 50 63 48 34 33 55 79 64 52 54 45 27 35 59 71 49 46 138 134 128 125 126 122 116 114 113 112 114 118 117 112 112 119 126 140 163 174 176 177 191 208 207 188 172 162 170 175 177
129 126 126 125 120 113 104 96 92 100 107 94 67 52 70 104 108 104 105 103 102 102 71 44 57 79 74 101 55 20 24 44 50 44 43 47 40 34 32 38 51 43 31 28 45 67 53 37 41 25 343 23 49 70 124 130 127 132 139 146 148 142 134 129 130 132 130 129 131 131 137 151 155 149 173 192 199 205 212 212 213 208 191 171 163 173 184
130 128 128 126 120 112 101 89 79 77 85 84 63 54 83 108 105 102 103 96 90 90 79 53 49 78 112 135 113 19 27 41 48 44 41 46 40 29 26 32 42 26 24 34 44 36 20 25 34 7 358 31 60 143 134 121 116 118 128 139 151 165 165 157 153 153 153 153 153 149 152 167 165 122 85 196 211 220 219 206 203 207 207 199 188 186 192
129 128 127 126 123 117 100 77 61 64 82 93 98 96 96 101 103 103 102 95 83 75 76 74 42 29 93 124 68 22 29 18 16 34 33 23 18 19 22 27 20 5 23 45 32 354 348 16 51 60 31 48 101 121 114 109 107 105 105 106 106 134 168 175 171 163 157 159 163 164 169 173 167 122 68 144 176 205 219 218 213 213 218 219 212 201 200
126 124 123 123 121 114 91 63 61 82 101 108 110 105 94 90 98 98 90 90 84 69 73 82 61 54 83 94 46 29 34 12 22 50 33 18 19 10 5 17 17 4 25 55 349 350 353 17 64 76 50 52 93 105 104 100 101 99 94 90 82 92 145 175 180 172 162 162 171 181 186 185 173 174 196 191 183 217 235 235 228 220 219 221 218 213 210
126 124 119 107 96 94 113 103 92 94 101 103 100 97 80 63 69 79 69 76 82 69 67 73 56 57 78 100 69 48 48 36 44 61 35 27 36 12 345 15 18 15 47 60 347 6 18 14 47 66 31 4 82 103 105 102 102 98 86 81 82 86 122 169 188 188 180 181 187 188 188 192 194 194 207 245 283 308 291 238 221 218 220 220 219 223 233
131 129 120 101 86 94 119 121 99 88 90 82 66 66 61 41 35 138 121 67 43 33 51 74 68 63 73 93 88 57 50 52 67 95 92 52 39 21 29 35 355 22 69 336 328 3 50 59 53 74 279 286 104 111 111 106 107 109 102 91 84 85 107 136 165 183 178 178 185 188 189 194 201 214 238 257 275 313 300 221 210 213 220 218 218 225 237
132 129 120 107 100 105 110 107 92 75 71 68 55 48 48 18 9 70 91 69 25 3 51 74 90 72 72 83 81 58 54 67 70 81 100 54 16 27 69 333 347 50 86 290 310 358 72 75 58 75 225 178 125 118 116 111 110 108 100 87 77 91 118 131 134 139 149 165 186 194 194 194 202 223 251 262 277 309 281 228 222 223 223 222 226 232 238
134 134 127 117 112 109 102 94 86 74 66 62 39 6 347 37 27 42 54 65 131 135 65 64 89 89 80 80 75 59 59 65 58 66 85 37 9 47 97 333 27 68 194 266 305 24 57 71 66 249 207 151 132 129 128 124 117 101 80 67 51 56 129 153 151 149 149 146 172 182 184 189 205 225 240 267 298 301 282 266 254 238 231 234 238 235 238
133 132 128 120 116 112 94 71 71 71 59 55 58 37 347 331 349 39 49 56 91 101 89 95 108 101 88 83 78 69 68 62 57 70 79 27 352 55 50 29 55 113 252 282 28 50 77 146 187 208 181 150 139 142 144 140 135 97 64 49 27 13 356 250 188 174 163 141 174 201 208 212 220 228 247 293 309 301 275 269 265 248 241 242 236 233 241
139 130 124 118 110 105 92 16 12 53 38 18 114 120 118 319 325 113 105 52 76 90 92 101 111 110 99 83 82 85 81 58 47 57 64 20 23 58 58 24 254 271 303 10 42 57 200 208 227 188 169 152 139 136 137 132 121 75 41 27 22 19 7 343 287 228 205 180 170 206 220 212 206 221 252 273 287 289 276 262 256 256 257 244 230 232 247
147 133 120 94 44 46 77 322 346 76 150 210 187 156 162 183 184 144 118 122 120 105 90 88 95 106 107 91 76 97 101 53 37 41 103 46 38 39 103 219 254 14 46 42 13 20 32 342 349 154 163 162 154 142 147 141 81 24 17 17 16 4 355 349 331 280 247 238 246 266 267 261 265 275 271 249 236 255 268 260 249 257 259 247 237 241 250
145 137 125 107 346 305 143 94 347 283 234 218 179 150 141 133 116 102 100 103 104 97 86 78 82 90 90 64 50 78 87 65 53 154 113 83 69 316 231 187 42 39 46 30 19 48 229 279 343 102 135 154 159 158 165 177 24 14 5 1 347 332 329 334 334 316 280 261 266 276 280 280 283 284 274 255 243 251 262 260 253 257 259 253 246 248 255
139 138 126 106 336 299 141 166 223 216 146 140 134 127 120 113 106 103 104 104 101 97 90 79 77 79 71 54 58 93 74 63 60 321 41 82 112 288 15 56 61 74 99 88 357 242 237 237 94 94 98 101 104 102 349 349 33 37 6 2 356 348 335 316 307 303 292 279 274 272 272 275 280 283 277 266 258 255 252 248 249 256 264 264 256 252 257
125 127 120 112 177 197 214 234 228 151 126 129 130 127 123 119 111 107 110 112 108 103 96 80 72 67 42 35 53 30 24 48 52 333 10 84 96 16 20 33 333 281 154 147 180 224 218 138 104 95 83 61 47 8 333 332 13 351 350 348 335 319 308 301 296 290 287 289 287 282 278 278 279 279 279 277 273 267 260 257 257 258 259 261 261 259 261
112 116 105 86 214 289 327 341 174 152 133 132 134 136 134 126 116 112 115 115 105 97 89 78 73 67 355 357 31 64 30 38 55 333 27 56 79 111 117 107 329 312 227 188 202 196 164 136 105 47 7 4 339 306 313 319 308 301 304 307 304 296 287 282 282 282 283 286 290 292 290 286 281 280 279 275 272 274 275 271 261 251 245 250 258 261 261
109 103 78 92 87 339 355 35 99 120 88 109 125 136 137 126 117 114 118 116 107 103 96 83 79 78 18 6 33 49 347 315 58 83 61 43 181 144 119 142 221 214 218 257 290 170 149 137 52 348 340 327 299 290 305 321 319 310 302 300 302 300 294 286 282 279 279 281 284 286 284 278 279 287 289 278 269 272 275 265 246 235 237 245 251 253 254
111 106 121 169 226 310 337 43 108 101 75 105 126 138 137 125 114 111 120 125 119 105 94 90 85 72 48 33 56 157 268 302 33 73 96 246 188 120 122 191 215 213 228 324 40 98 105 51 15 4 354 339 320 313 323 330 328 321 314 310 310 309 302 290 280 274 274 276 276 277 276 273 276 286 293 286 276 278 276 256 234 234 246 251 247 249 255
134 124 299 300 310 309 297 148 106 85 85 111 131 139 134 124 116 116 124 125 111 94 97 117 108 81 77 154 236 185 84 36 39 48 252 253 107 122 163 197 213 223 235 134 110 115 53 8 5 1 352 344 337 333 331 328 323 318 315 314 314 310 300 289 280 278 279 278 277 279 281 276 275 282 291 290 279 278 276 254 236 245 262 260 248 250 263